Regional Weather Roundup
Issued by NWS Sioux Falls, SD

Home | Current Version | Previous Version | Graphics & Text | Print | Product List | Glossary On
Versions: 1 2 3 4 5 6 7 8 9 10 11 12 13 14 15 16 17 18 19 20 21 22 23 24 25 26 27 28 29 30 31 32 33 34 35 36 37 38 39 40 41 42 43 44 45 46 47 48 49 50
000
ASUS43 KFSD 191710
RWRFSD

WEATHER ROUNDUP FOR SE SOUTH DAKOTA/SW MINNESOTA/NW IOWA
NATIONAL WEATHER SERVICE SIOUX FALLS SD
1100 AM CST MON FEB 19 2018

NOTE: "FAIR" INDICATES FEW OR NO CLOUDS BELOW 12,000 FEET WITH NO
SIGNIFICANT WEATHER AND OR OBSTRUCTIONS TO VISIBILITY.


SDZ038>040-050-052>070-191800-
SOUTHEAST SOUTH DAKOTA

CITY           SKY/WX    TMP DP  RH WIND       PRES   REMARKS
BROOKINGS      LGT SNOW  12   8  84 N15G24    29.91F FOG     WCI  -4
CHAMBERLAIN    LGT SNOW  11   7  83 NW18G24   30.00F WCI  -7
HURON          CLOUDY    11   5  77 N21       30.02R WCI  -8
MADISON        LGT RAIN  12  12 100 NE24G33   29.88F WCI  -8
MITCHELL       CLOUDY    14   9  80 N22       30.00R WCI  -4
SIOUX FALLS    FLURRIES  16  11  80 N16       29.88R WCI   1
WINNER         LGT SNOW   9   3  77 N17       30.00R WCI  -9
YANKTON        FLURRIES  16  12  84 N15       29.91R WCI   1
$$

MNZ071-072-080-081-089-090-097-098-191800-
SOUTHWEST MINNESOTA

CITY           SKY/WX    TMP DP  RH WIND       PRES   REMARKS
FAIRMONT       LGT SNOW  21  18  88 MISG      29.82S FOG
JACKSON        CLOUDY    18  14  86 N17G23    29.81F FOG     WCI   2
LUVERNE        CLOUDY    18  12  79 NE16G25   29.85R WCI   3
MARSHALL       FLURRIES  15  11  83 N20       29.93F WCI  -2
MONTEVIDEO     CLOUDY    16  10  79 NE18G25   29.98R WCI  -1
PIPESTONE      CLOUDY    14  10  85 NE21G28   29.84R WCI  -4
REDWOOD FALLS  LGT SNOW  17  13  84 NE10G17   29.91F FOG     WCI   5
TRACY          LGT SNOW  17  14  90 N15       29.89S WCI   2
WINDOM         LGT SNOW  16   3  57 N21       29.82F WCI  -2
WORTHINGTON    FLURRIES  16  12  84 N25G33    29.81F WCI  -3
$$

IAZ001>003-012>014-020>022-031-032-NEZ013-014-SDZ071-191800-
NORTHWEST IOWA

CITY           SKY/WX    TMP DP  RH WIND       PRES   REMARKS
CHEROKEE       CLOUDY    20  19  96 N9        29.82R FOG     WCI   9
DENISON        CLOUDY    25  25 100 N20G26    29.79R FOG     WCI  11
ESTHERVILLE    LGT SNOW  18  16  92 MISG      29.79F FOG
LE MARS        CLOUDY    19  16  86 MISG      29.84S
ORANGE CITY    CLOUDY    19  18  93 NE12G20   29.83R WCI   7
SHELDON        CLOUDY    18  16  93 MISG      29.81S FOG
SIOUX CITY     CLOUDY    20  18  92 N17       29.85S WCI   5
SPENCER        MIX PCPN  20  16  84 MISG      29.80F FOG
STORM LAKE     SUNNY     21  19  93 MISG      29.77R FOG
$$

ABBREVIATIONS USED IN REMARKS
   TC - TEMPERATURE IN CELSIUS
  WCI - WIND CHILL INDEX
   HX - HEAT INDEX
  VSB - VISIBILITY





USA.gov is the U.S. government's official web portal to all federal, state and local government web resources and services.